Tracking 35331 objects as of 15-Sep-2026
HD Live streaming from Space Station
objects crossing your sky now

RUZAEVKA-390


RUZAEVKA-390 is no longer on orbit
RUZAEVKA-390 is classified as:


NORAD ID: 61766
Int'l Code: 2024-199AH
Launch date: November 4, 2024
Source: Commonwealth of Independent States (former USSR) (CIS)
Launch site: VOSTOCHNY COSMODROME (VOSTO)
Decay date: 2026-03-10

Uplink (MHz):
Downlink (MHz): 437.050
Beacon (MHz):
Mode: 1143 AFSK SSTV
Call sign: RS44S
Status: Inactive

Your satellite tracking list
Your tracking list is empty




NASA's NSSDC Master Catalog

Two Line Element Set (TLE):
1 61766U 24199AH  26069.38481491  .11440096  25250-5  56352-3 0  9990
2 61766  97.2628 311.9876 0007678 247.6224 112.4264 16.42346068119643
Source of the keplerian elements: AFSPC